Regional Weather Roundup
Issued by NWS

Home | Current Version | Previous Version | Graphics & Text | Print | Product List | Glossary On
Versions: 1 2 3 4 5 6 7 8 9 10 11 12 13 14 15 16 17 18 19 20 21 22 23 24 25 26 27 28 29 30 31 32 33 34 35 36 37 38 39 40 41 42 43 44 45 46 47 48 49 50
000
ASUS43 KOAX 301802
RWRNE

WEATHER ROUNDUP FOR NEBRASKA
NATIONAL WEATHER SERVICE OMAHA NE
100 PM CDT SUN AUG 30 2015

NOTES: SATELLITE DATA IS BEING USED TO AUGMENT CLOUD COVER ABOVE
       12000 FEET.
       "FAIR" INDICATES FEW OR NO CLOUDS BELOW 12,000 FEET WITH NO
       SIGNIFICANT WEATHER AND/OR OBSTRUCTIONS TO VISIBILITY.

  * THESE STATIONS DO NOT REPORT WEATHER SUCH AS RAIN...SNOW OR FOG.

NEZ001>004-019>022-054>056-301900-
NEBRASKA PANHANDLE

CITY           SKY/WX    TMP DP  RH WIND       PRES   REMARKS
SCOTTSBLUFF    SUNNY     85  53  33 E9        29.96F
6HR MIN TEMP:  57; 6HR MAX TEMP:  85;

ALLIANCE       MOSUNNY   90  49  24 S17       29.96F
6HR MIN TEMP:  57; 6HR MAX TEMP:  90;

CHADRON        SUNNY     95  46  18 W8        29.86F HX  91
6HR MIN TEMP:  62; 6HR MAX TEMP:  95;

KIMBALL        SUNNY     90  42  19 E3        30.02F
SIDNEY         SUNNY     91  47  21 SW22      30.02F
6HR MIN TEMP:  61; 6HR MAX TEMP:  92;

$$

NEZ057>060-069>072-079>082-301900-
SOUTHWEST NEBRASKA

CITY           SKY/WX    TMP DP  RH WIND       PRES   REMARKS
NORTH PLATTE   SUNNY     87  51  28 S17       29.98F
6HR MIN TEMP:  53; 6HR MAX TEMP:  87;

IMPERIAL       SUNNY     91  44  19 S20G25    30.01F
6HR MIN TEMP:  53; 6HR MAX TEMP:  91;

MCCOOK         SUNNY     92  46  20 S14       30.00F
6HR MIN TEMP:  53; 6HR MAX TEMP:  92;

$$

NEZ005>010-023>029-035>040-094-301900-
NORTH CENTRAL NEBRASKA

CITY           SKY/WX    TMP DP  RH WIND       PRES   REMARKS
VALENTINE      CLOUDY    93  44  18 S25G36    29.89F
6HR MIN TEMP:  61; 6HR MAX TEMP:  93;

AINSWORTH      SUNNY     89  51  27 S21       29.94F
BROKEN BOW     SUNNY     86  58  38 S14       29.99F
6HR MIN TEMP:  55; 6HR MAX TEMP:  86;

O`NEILL        SUNNY     85  64  49 S13       29.96F
ORD            SUNNY     85  58  39 S13       29.97F
6HR MIN TEMP:  55; 6HR MAX TEMP:  85;

$$

NEZ041-046>049-061>064-073>077-083>087-301900-
SOUTH CENTRAL NEBRASKA

CITY           SKY/WX    TMP DP  RH WIND       PRES   REMARKS
AURORA         SUNNY     72  66  81 S13       30.04F
HASTINGS       SUNNY     78  65  63 S10G17    30.04F
6HR MIN TEMP:  61; 6HR MAX TEMP:  78;

KEARNEY *      SUNNY     81  63  54 S13       30.02F
YORK           PTSUNNY   68  64  88 S12       30.06F
$$

NEZ011>018-030>034-042>045-301900-
NORTHEAST NEBRASKA

CITY           SKY/WX    TMP DP  RH WIND       PRES   REMARKS
NORFOLK        SUNNY     73  65  75 S10       30.01F
6HR MIN TEMP:  63; 6HR MAX TEMP:  73;

ALBION         SUNNY     73  64  73 SE12      30.01F
BLAIR          CLOUDY    69  64  83 S12       30.06F
COLUMBUS *     CLOUDY    70  61  73 S7        30.04F
FREMONT        CLOUDY    68  64  85 S10       30.06S
TEKAMAH        CLOUDY    68  64  87 S8        30.05F
6HR MIN TEMP:  62; 6HR MAX TEMP:  68;

$$

NEZ050>053-065>068-078-088>093-301900-
SOUTHEAST NEBRASKA

CITY           SKY/WX    TMP DP  RH WIND       PRES   REMARKS
LINCOLN        CLOUDY    72  64  76 S10       30.06F
6HR MIN TEMP:  62; 6HR MAX TEMP:  73;

OMAHA EPPLEY   CLOUDY    70  64  81 S13       30.06F
6HR MIN TEMP:  63; 6HR MAX TEMP:  71;

BEATRICE       CLOUDY    70  65  86 S10       30.07F
FALLS CITY     CLOUDY    74  68  81 CALM      30.06F
6HR MIN TEMP:  58; 6HR MAX TEMP:  74;

NEBRASKA CITY  CLOUDY    71  67  86 S7        30.08F
$$

NEZ044-045-051>053-067-301900-
OMAHA AREA

CITY           SKY/WX    TMP DP  RH WIND       PRES   REMARKS
OMAHA EPPLEY   CLOUDY    70  64  81 S13       30.06F
6HR MIN TEMP:  63; 6HR MAX TEMP:  71;

BLAIR          CLOUDY    69  64  83 S12       30.06F
FREMONT        CLOUDY    68  64  85 S10       30.06S
OFFUTT AFB     CLOUDY    70  64  83 S8        30.06F
WAHOO          CLOUDY    70  64  82 S8        30.06F
$$




USA.gov is the U.S. government's official web portal to all federal, state and local government web resources and services.